Weather in Bulzi

Russia / Chelyabinsk Oblast     56°05′11″N   61°05′17″E
temp.,
°C
wind,
m/s
gust,
m/s
humid.,
%
clouds,
%
prec.,
mm/h
press.,
hPa
HPBL,
m
13 april, tue
tue1323:00+5n489014 0.0 1040155
02:00+3n33892 0.0 104151
05:00+1n11900 0.0 104210
08:00+4nne00830 0.0 104382
11:00+8s33760 0.0 1042473
14:00+11s45675 0.0 1040782
17:00+13ssw45620 0.0 1038934
20:00+10s48815 0.0 1037127
14 april, wed
wed1423:00+7ssw478920 0.0 1036118
02:00+7sw3388100 0.0 103539
05:00+7wsw339088 0.0 103439
08:00+9wsw3990100 0.0 1034308
11:00+14w466849 0.0 1033583
14:00+17w44589 0.0 10311093
17:00+18w445517 0.0 10291244
20:00+14w33727 0.0 102921
15 april, thu
thu1523:00+11wnw228042 0.0 102914
02:00+10w228320 0.0 102810
05:00+9wsw22845 0.0 102710
08:00+10wsw22805 0.0 102679
11:00+16w34585 0.0 1025685
14:00+19wsw45405 0.0 10231323
17:00+19w463664 0.0 10211320
20:00+13w345385 0.0 102050
16 april, fri
fri1623:00+10wnw3362100 0.0 102044
02:00+9w337252 0.0 101931
05:00+7w33782 0.0 101830
08:00+9w377415 0.0 1017180
11:00+15wnw355131 0.0 10151108
14:00+17nw354298 0.0 10132110
17:00+11ne687798 0.0 1013376
20:00+5nne7992100 0.0 1015480
17 april, sat
sat1723:00+2nne6995100 0.1 1015550
02:000nne6995100 0.6 1015607
05:00−2nne698799 0.9 1016636
08:00−2nne7979100 0.1 1016784
11:00−2n7870100 0.2 10161154
14:000nne7955100 0.1 10171619
17:000nne81052100 0.1 10171797
20:00−2nne6105699 0.1 10191064